Regional Weather Roundup
Issued by NWS Goodland, KS

Home | Current Version | Previous Version | Graphics & Text | Print | Product List | Glossary On
Versions: 1 2 3 4 5 6 7 8 9 10 11 12 13 14 15 16 17 18 19 20 21 22 23 24 25 26 27 28 29 30 31 32 33 34 35 36 37 38 39 40 41 42 43 44 45 46 47 48 49 50
000
ASUS43 KGLD 010659
RWRGLD

GOODLAND FORECAST AREA HOURLY WEATHER ROUNDUP
NATIONAL WEATHER SERVICE GOODLAND KS
1200 AM MST SUN FEB 01 2015

...OFFICIAL OBSERVATIONS...

CITY           SKY/WX    TMP DP  RH WIND       PRES   REMARKS
GOODLAND KS    LGT SNOW  24  22  91 N24G30    29.91R FOG     WCI   8
HILL CITY KS   LGT SNOW  29  25  85 N25G35    29.86S FOG     WCI  14
IMPERIAL NEB   LGT SNOW  20  15  81 N20       29.97R WCI   4
MCCOOK NEB     LGT SNOW  23  19  85 N23       29.92R FOG     WCI   7
AKRON CO       CLOUDY    23  23 100 N18       29.95R FOG     WCI   9
BURLINGTON CO  CLOUDY    26  23  88 N21       29.90R WCI  12
LIMON CO       CLOUDY    28  26  92 N20       29.91R WCI  15
$$

...UNOFFICIAL OBSERVATIONS...

CITY           SKY/WX    TMP DP  RH WIND       PRES   REMARKS
COLBY KS       CLOUDY    27  27 100 NW13G20   29.89R WCI  16
GOVE KS          N/A     31  32 100 MISG        N/A
NORTON KS      LGT SNOW  25  19  80 NW28      29.87R WCI   8
SHARON SPRINGS   N/A     32  31  97 N14         N/A
KIT CARSON CO    N/A     32  29  90 MISG        N/A
YUMA CO          N/A     24  22  90 N12         N/A  WCI  13
$$



USA.gov is the U.S. government's official web portal to all federal, state and local government web resources and services.